Location: Rounton
(54.4000°N, 1.3500°W)
Time: 01:29:40
(UTC+00:00)

Transit 4A - Pass Details

Date: 29 November 2021
Orbit: 864 x 981 km, 66.8° (Epoch: 19 January)

Event Time Altitude Azimuth Distance (km) Brightness Sun altitude
Exits shadow 05:59:18 25° 285° (WNW) 1,814 8.8 -16.6°
Maximum altitude 06:01:42 34° 246° (WSW) 1,545 8.7 -16.2°
Drops below altitude 10° 06:07:17 10° 185° (S) 2,712 10.5 -15.4°
Sets 06:10:05 0° 176° (S) 3,664 11.3 -15.0°
